| time (UTC) | temp F | wind direction | speed knots | gust knots | rain 1hr in | rain 24hr in | rain mn in | humidity % | barometer mb |
| 20260904214019 | 87 | 138 | 5.2 | 14.8 | 0.00 | 0.03 | 0.03 | 100 | 1015.7 |
| 20260904213519 | 88 | 143 | 3.5 | 13.0 | 0.00 | 0.03 | 0.03 | 100 | 1015.7 |
| 20260904213018 | 87 | 146 | 7.0 | 13.9 | 0.00 | 0.03 | 0.03 | 100 | 1015.8 |
| 20260904212518 | 87 | 136 | 7.0 | 15.6 | 0.00 | 0.03 | 0.03 | 100 | 1015.8 |
| 20260904212019 | 88 | 145 | 8.7 | 15.6 | 0.00 | 0.03 | 0.03 | 100 | 1015.8 |
| 20260904211518 | 88 | 142 | 6.1 | 13.0 | 0.00 | 0.03 | 0.03 | 100 | 1015.9 |
| 20260904211018 | 88 | 151 | 6.1 | 13.0 | 0.00 | 0.03 | 0.03 | 100 | 1016.1 |
| 20260904210520 | 88 | 167 | 5.2 | 12.2 | 0.00 | 0.03 | 0.03 | 100 | 1016.2 |
| 20260904210019 | 87 | 126 | 6.1 | 12.2 | 0.00 | 0.03 | 0.03 | 100 | 1016.2 |
| 20260904205517 | 87 | 159 | 7.0 | 13.9 | 0.00 | 0.03 | 0.03 | 100 | 1016.1 |
| 20260904205016 | 87 | 136 | 7.8 | 14.8 | 0.00 | 0.03 | 0.03 | 100 | 1016.2 |
| 20260904204518 | 88 | 168 | 6.1 | 12.2 | 0.00 | 0.03 | 0.03 | 100 | 1016.2 |
| 20260904204015 | 88 | 150 | 7.0 | 13.9 | 0.00 | 0.03 | 0.03 | 100 | 1016.4 |
| 20260904203515 | 88 | 132 | 7.0 | 13.9 | 0.00 | 0.03 | 0.03 | 100 | 1016.3 |
| 20260904203016 | 88 | 149 | 3.5 | 13.0 | 0.00 | 0.03 | 0.03 | 100 | 1016.2 |
| 20260904202517 | 87 | 144 | 4.3 | 13.0 | 0.00 | 0.03 | 0.03 | 100 | 1016.2 |
| 20260904202017 | 87 | 146 | 5.2 | 11.3 | 0.00 | 0.03 | 0.03 | 100 | 1016.1 |
| 20260904201513 | 87 | 185 | 2.6 | 11.3 | 0.00 | 0.03 | 0.03 | 100 | 1016.0 |
| 20260904201014 | 87 | 121 | 2.6 | 11.3 | 0.00 | 0.03 | 0.03 | 100 | 1016.0 |
| 20260904200518 | 87 | 148 | 4.3 | 11.3 | 0.00 | 0.03 | 0.03 | 100 | 1016.1 |
| 20260904200016 | 87 | 133 | 2.6 | 8.7 | 0.00 | 0.03 | 0.03 | 100 | 1016.2 |
| 20260904195513 | 87 | 122 | 3.5 | 10.4 | 0.00 | 0.03 | 0.03 | 100 | 1016.3 |
| 20260904195012 | 87 | 162 | 4.3 | 10.4 | 0.00 | 0.03 | 0.03 | 100 | 1016.3 |
| 20260904194512 | 88 | 117 | 4.3 | 12.2 | 0.00 | 0.03 | 0.03 | 100 | 1016.4 |
| 20260904194012 | 87 | 159 | 6.1 | 12.2 | 0.01 | 0.03 | 0.03 | 100 | 1016.4 |
| 20260904193513 | 87 | 109 | 3.5 | 10.4 | 0.02 | 0.03 | 0.03 | 100 | 1016.5 |
| 20260904193013 | 86 | 148 | 4.3 | 10.4 | 0.02 | 0.03 | 0.03 | 100 | 1016.8 |
| 20260904192513 | 86 | 151 | 3.5 | 9.6 | 0.02 | 0.03 | 0.03 | 100 | 1016.9 |
| 20260904192016 | 86 | 127 | 3.5 | 10.4 | 0.03 | 0.03 | 0.03 | 100 | 1016.9 |
| 20260904191518 | 86 | 133 | 6.1 | 10.4 | 0.03 | 0.03 | 0.03 | 100 | 1016.9 |
| 20260904191012 | 86 | 157 | 3.5 | 10.4 | 0.03 | 0.03 | 0.03 | 100 | 1017.0 |
| 20260904190512 | 85 | 144 | 2.6 | 9.6 | 0.03 | 0.03 | 0.03 | 100 | 1017.0 |
| 20260904190015 | 84 | 147 | 4.3 | 9.6 | 0.03 | 0.03 | 0.03 | 100 | 1017.0 |
| 20260904185512 | 84 | 144 | 3.5 | 8.7 | 0.03 | 0.03 | 0.03 | 100 | 1017.1 |
| 20260904185012 | 83 | 116 | 1.7 | 7.0 | 0.03 | 0.03 | 0.03 | 100 | 1017.1 |
| 20260904184511 | 82 | 112 | 1.7 | 7.8 | 0.03 | 0.03 | 0.03 | 100 | 1017.1 |
| 20260904184011 | 82 | 184 | 4.3 | 7.8 | 0.02 | 0.02 | 0.02 | 100 | 1017.3 |
| 20260904183511 | 82 | 157 | 3.5 | 9.6 | 0.01 | 0.01 | 0.01 | 100 | 1017.3 |
| 20260904183010 | 82 | 171 | 5.2 | 11.3 | 0.01 | 0.01 | 0.01 | 100 | 1017.4 |
| 20260904182513 | 83 | 179 | 3.5 | 13.9 | 0.01 | 0.01 | 0.01 | 100 | 1017.4 |
| 20260904182011 | 84 | 196 | 6.1 | 16.5 | 0.00 | 0.00 | 0.00 | 100 | 1017.4 |
| 20260904181509 | 85 | 149 | 9.6 | 16.5 | 0.00 | 0.00 | 0.00 | 100 | 1017.3 |
| 20260904181013 | 86 | 157 | 6.1 | 13.0 | 0.00 | 0.00 | 0.00 | 100 | 1017.4 |
| 20260904180510 | 87 | 159 | 5.2 | 12.2 | 0.00 | 0.00 | 0.00 | 100 | 1017.4 |
| 20260904180008 | 88 | 145 | 6.1 | 12.2 | 0.00 | 0.00 | 0.00 | 100 | 1017.5 |
| 20260904175507 | 89 | 115 | 6.1 | 13.0 | 0.00 | 0.00 | 0.00 | 100 | 1017.6 |
| 20260904175005 | 89 | 167 | 6.1 | 10.4 | 0.00 | 0.00 | 0.00 | 100 | 1017.6 |
| 20260904174504 | 89 | 51 | 5.2 | 12.2 | 0.00 | 0.00 | 0.00 | 100 | 1017.6 |
| 20260904174002 | 89 | 165 | 5.2 | 12.2 | 0.00 | 0.00 | 0.00 | 100 | 1017.6 |
| 20260904173501 | 90 | 153 | 3.5 | 12.2 | 0.00 | 0.00 | 0.00 | 100 | 1017.6 |
| 20260904173103 | 89 | 127 | 4.3 | 12.2 | 0.00 | 0.00 | 0.00 | 100 | 1017.6 |
| 20260904172558 | 88 | 132 | 3.5 | 11.3 | 0.00 | 0.00 | 0.00 | 100 | 1017.6 |
| 20260904172057 | 89 | 133 | 2.6 | 10.4 | 0.00 | 0.00 | 0.00 | 100 | 1017.7 |
| 20260904171601 | 89 | 123 | 4.3 | 9.6 | 0.00 | 0.00 | 0.00 | 100 | 1017.8 |
| 20260904171055 | 89 | 122 | 3.5 | 13.0 | 0.00 | 0.00 | 0.00 | 100 | 1017.7 |
| 20260904170552 | 89 | 125 | 5.2 | 13.0 | 0.00 | 0.00 | 0.00 | 100 | 1017.7 |
| 20260904170054 | 89 | 109 | 3.5 | 7.8 | 0.00 | 0.00 | 0.00 | 100 | 1017.7 |
| 20260904165549 | 90 | 110 | 2.6 | 9.6 | 0.00 | 0.00 | 0.00 | 100 | 1017.8 |
| 20260904165048 | 90 | 155 | 4.3 | 9.6 | 0.00 | 0.00 | 0.00 | 100 | 1017.9 |
| 20260904164548 | 89 | 124 | 3.5 | 7.0 | 0.00 | 0.00 | 0.00 | 100 | 1017.9 |
| 20260904164044 | 89 | 146 | 3.5 | 9.6 | 0.00 | 0.00 | 0.00 | 100 | 1017.9 |
| 20260904163543 | 90 | 132 | 4.3 | 7.8 | 0.00 | 0.00 | 0.00 | 100 | 1018.1 |
| 20260904163044 | 91 | 170 | 0.9 | 6.1 | 0.00 | 0.00 | 0.00 | 100 | 1018.0 |
| 20260904162540 | 91 | 133 | 2.6 | 7.8 | 0.00 | 0.00 | 0.00 | 100 | 1017.9 |
| 20260904162038 | 90 | 211 | 3.5 | 7.8 | 0.00 | 0.00 | 0.00 | 100 | 1017.9 |
| 20260904161539 | 91 | 240 | 0.9 | 5.2 | 0.00 | 0.00 | 0.00 | 100 | 1017.9 |
| 20260904161035 | 90 | 289 | 1.7 | 8.7 | 0.00 | 0.00 | 0.00 | 100 | 1018.1 |
| 20260904160534 | 89 | 246 | 4.3 | 8.7 | 0.00 | 0.00 | 0.00 | 100 | 1018.3 |
| 20260904160046 | 90 | 206 | 1.7 | 6.1 | 0.00 | 0.00 | 0.00 | 100 | 1018.3 |
| 20260904155532 | 89 | 167 | 2.6 | 10.4 | 0.00 | 0.00 | 0.00 | 100 | 1018.5 |
| 20260904155029 | 89 | 169 | 5.2 | 10.4 | 0.00 | 0.00 | 0.00 | 100 | 1018.5 |
| 20260904154534 | 90 | 170 | 1.7 | 7.0 | 0.00 | 0.00 | 0.00 | 100 | 1018.6 |
| 20260904154030 | 90 | 203 | 2.6 | 7.0 | 0.00 | 0.00 | 0.00 | 100 | 1018.5 |
| 20260904153525 | 89 | 186 | 3.5 | 7.0 | 0.00 | 0.00 | 0.00 | 100 | 1018.4 |
| 20260904153024 | 89 | 181 | 2.6 | 7.0 | 0.00 | 0.00 | 0.00 | 100 | 1018.4 |
| 20260904152523 | 89 | 190 | 2.6 | 7.0 | 0.00 | 0.00 | 0.00 | 100 | 1018.4 |
| 20260904152020 | 89 | 234 | 1.7 | 7.0 | 0.00 | 0.00 | 0.00 | 100 | 1018.5 |
| 20260904151525 | 88 | 170 | 3.5 | 8.7 | 0.00 | 0.00 | 0.00 | 100 | 1018.5 |
| 20260904151019 | 88 | 193 | 2.6 | 8.7 | 0.00 | 0.00 | 0.00 | 100 | 1018.5 |
| 20260904150518 | 88 | 159 | 4.3 | 8.7 | 0.00 | 0.00 | 0.00 | 100 | 1018.5 |
| 20260904150031 | 88 | 247 | 2.6 | 9.6 | 0.00 | 0.00 | 0.00 | 100 | 1018.5 |
| 20260904145515 | 87 | 241 | 4.3 | 9.6 | 0.00 | 0.00 | 0.00 | 100 | 1018.4 |
| 20260904145011 | 88 | 208 | 3.5 | 7.0 | 0.00 | 0.00 | 0.00 | 100 | 1018.4 |
| 20260904144510 | 88 | 154 | 2.6 | 7.8 | 0.00 | 0.00 | 0.00 | 100 | 1018.2 |
| 20260904144008 | 88 | 175 | 2.6 | 7.0 | 0.00 | 0.00 | 0.00 | 100 | 1018.2 |
| 20260904143507 | 87 | 161 | 3.5 | 7.0 | 0.00 | 0.00 | 0.00 | 100 | 1018.2 |
| 20260904143006 | 87 | 229 | 0.9 | 5.2 | 0.00 | 0.00 | 0.00 | 100 | 1018.1 |
| 20260904142504 | 87 | 203 | 1.7 | 8.7 | 0.00 | 0.00 | 0.00 | 100 | 1018.1 |
| 20260904142001 | 87 | 204 | 2.6 | 7.8 | 0.00 | 0.00 | 0.00 | 100 | 1018.1 |
| 20260904141605 | 87 | 155 | 2.6 | 8.7 | 0.00 | 0.00 | 0.00 | 100 | 1018.0 |
| 20260904141500 | 87 | 159 | 1.7 | 8.7 | 0.00 | 0.00 | 0.00 | 100 | 1018.0 |
| 20260904141059 | 86 | 230 | 2.6 | 8.7 | 0.00 | 0.00 | 0.00 | 100 | 1017.8 |
| 20260904140559 | 86 | 205 | 1.7 | 6.1 | 0.00 | 0.00 | 0.00 | 100 | 1017.8 |
| 20260904140105 | 86 | 186 | 0.9 | 6.1 | 0.00 | 0.00 | 0.00 | 100 | 1017.7 |
| 20260904135558 | 86 | 208 | 1.7 | 6.1 | 0.00 | 0.00 | 0.00 | 100 | 1017.7 |
| 20260904135055 | 86 | 233 | 2.6 | 6.1 | 0.00 | 0.00 | 0.00 | 100 | 1017.6 |
| 20260904134603 | 86 | 217 | 1.7 | 8.7 | 0.00 | 0.00 | 0.00 | 100 | 1017.7 |
| 20260904134050 | 86 | 233 | 1.7 | 8.7 | 0.00 | 0.00 | 0.00 | 100 | 1017.8 |
| 20260904133549 | 85 | 202 | 1.7 | 6.1 | 0.00 | 0.00 | 0.00 | 100 | 1017.8 |
| 20260904133053 | 85 | 228 | 1.7 | 7.0 | 0.00 | 0.00 | 0.00 | 100 | 1017.8 |
| 20260904132546 | 85 | 235 | 1.7 | 6.1 | 0.00 | 0.00 | 0.00 | 100 | 1017.8 |
| 20260904132047 | 85 | 235 | 1.7 | 7.8 | 0.00 | 0.00 | 0.00 | 100 | 1017.7 |
| 20260904131546 | 85 | 221 | 2.6 | 7.8 | 0.00 | 0.00 | 0.00 | 100 | 1017.6 |
| 20260904131044 | 84 | 219 | 1.7 | 6.1 | 0.00 | 0.00 | 0.00 | 100 | 1017.6 |
| 20260904130541 | 84 | 212 | 1.7 | 6.1 | 0.00 | 0.00 | 0.00 | 100 | 1017.5 |
| 20260904130050 | 84 | 218 | 0.0 | 5.2 | 0.00 | 0.00 | 0.00 | 100 | 1017.5 |
| 20260904125539 | 83 | 211 | 0.9 | 4.3 | 0.00 | 0.00 | 0.00 | 100 | 1017.5 |
| 20260904125038 | 83 | 192 | 1.7 | 4.3 | 0.00 | 0.00 | 0.00 | 100 | 1017.4 |
| 20260904124538 | 82 | 167 | 1.7 | 3.5 | 0.00 | 0.00 | 0.00 | 100 | 1017.3 |
| 20260904124037 | 82 | 200 | 0.0 | 2.6 | 0.00 | 0.00 | 0.00 | 100 | 1017.4 |
| 20260904123537 | 81 | 180 | 0.0 | 2.6 | 0.00 | 0.00 | 0.00 | 100 | 1017.4 |
| 20260904123036 | 81 | 164 | 0.0 | 0.0 | 0.00 | 0.00 | 0.00 | 100 | 1017.4 |
| 20260904122536 | 80 | 157 | 0.0 | 0.0 | 0.00 | 0.00 | 0.00 | 100 | 1017.3 |
| 20260904122037 | 80 | 157 | 0.0 | 0.0 | 0.00 | 0.00 | 0.00 | 100 | 1017.2 |
| 20260904121539 | 79 | 157 | 0.0 | 0.0 | 0.00 | 0.00 | 0.00 | 100 | 1017.2 |
| 20260904121036 | 79 | 157 | 0.0 | 0.0 | 0.00 | 0.00 | 0.00 | 100 | 1017.4 |
| 20260904120539 | 79 | 157 | 0.0 | 0.0 | 0.00 | 0.00 | 0.00 | 100 | 1017.2 |
| 20260904120034 | 79 | 157 | 0.0 | 0.0 | 0.00 | 0.00 | 0.00 | 100 | 1017.1 |
| 20260904115533 | 79 | 157 | 0.0 | 0.0 | 0.00 | 0.00 | 0.00 | 100 | 1017.0 |
| 20260904115034 | 79 | 157 | 0.0 | 0.0 | 0.00 | 0.00 | 0.00 | 100 | 1017.0 |
| 20260904114534 | 79 | 157 | 0.0 | 0.0 | 0.00 | 0.00 | 0.00 | 100 | 1017.0 |
| 20260904114034 | 79 | 157 | 0.0 | 0.0 | 0.00 | 0.00 | 0.00 | 100 | 1017.0 |
| 20260904113535 | 79 | 157 | 0.0 | 0.0 | 0.00 | 0.00 | 0.00 | 100 | 1016.9 |
| 20260904113035 | 79 | 157 | 0.0 | 0.0 | 0.00 | 0.00 | 0.00 | 100 | 1016.8 |
| 20260904112533 | 79 | 157 | 0.0 | 0.0 | 0.00 | 0.00 | 0.00 | 100 | 1016.8 |
| 20260904112032 | 79 | 157 | 0.0 | 0.0 | 0.00 | 0.00 | 0.00 | 100 | 1016.8 |
| 20260904111539 | 79 | 156 | 0.0 | 0.0 | 0.00 | 0.00 | 0.00 | 100 | 1016.7 |
| 20260904111031 | 79 | 156 | 0.0 | 0.0 | 0.00 | 0.00 | 0.00 | 100 | 1016.7 |
| 20260904110530 | 79 | 156 | 0.0 | 0.0 | 0.00 | 0.00 | 0.00 | 100 | 1016.5 |
| 20260904110030 | 79 | 156 | 0.0 | 0.0 | 0.00 | 0.00 | 0.00 | 100 | 1016.5 |
| 20260904105532 | 79 | 156 | 0.0 | 0.0 | 0.00 | 0.00 | 0.00 | 100 | 1016.5 |
| 20260904105029 | 79 | 156 | 0.0 | 0.0 | 0.00 | 0.00 | 0.00 | 100 | 1016.5 |
| 20260904104534 | 79 | 156 | 0.0 | 0.0 | 0.00 | 0.00 | 0.00 | 100 | 1016.5 |
| 20260904104032 | 79 | 156 | 0.0 | 0.0 | 0.00 | 0.00 | 0.00 | 100 | 1016.5 |
| 20260904103529 | 79 | 156 | 0.0 | 0.0 | 0.00 | 0.00 | 0.00 | 100 | 1016.5 |
| 20260904103029 | 79 | 156 | 0.0 | 0.0 | 0.00 | 0.00 | 0.00 | 100 | 1016.5 |
| 20260904102535 | 79 | 156 | 0.0 | 0.0 | 0.00 | 0.00 | 0.00 | 100 | 1016.3 |
| 20260904102029 | 79 | 156 | 0.0 | 0.9 | 0.00 | 0.00 | 0.00 | 100 | 1016.3 |
| 20260904101529 | 79 | 156 | 0.0 | 0.9 | 0.00 | 0.00 | 0.00 | 100 | 1016.2 |
| 20260904101029 | 79 | 155 | 0.0 | 0.0 | 0.00 | 0.00 | 0.00 | 100 | 1016.1 |
| 20260904100529 | 79 | 155 | 0.0 | 0.0 | 0.00 | 0.00 | 0.00 | 100 | 1016.1 |
| 20260904100029 | 79 | 155 | 0.0 | 0.0 | 0.00 | 0.00 | 0.00 | 100 | 1016.0 |
| 20260904095528 | 79 | 155 | 0.0 | 1.7 | 0.00 | 0.00 | 0.00 | 100 | 1015.9 |
| 20260904095028 | 79 | 155 | 0.0 | 1.7 | 0.00 | 0.00 | 0.00 | 100 | 1016.0 |
| 20260904094527 | 79 | 155 | 0.0 | 1.7 | 0.00 | 0.00 | 0.00 | 100 | 1016.0 |
| 20260904094026 | 79 | 155 | 0.0 | 0.0 | 0.00 | 0.00 | 0.00 | 100 | 1015.9 |
| 20260904093527 | 80 | 155 | 0.0 | 0.0 | 0.00 | 0.00 | 0.00 | 100 | 1015.9 |
| 20260904093026 | 80 | 155 | 0.0 | 0.0 | 0.00 | 0.00 | 0.00 | 100 | 1016.0 |
| 20260904092528 | 80 | 155 | 0.0 | 0.0 | 0.00 | 0.00 | 0.00 | 100 | 1015.9 |
| 20260904092026 | 80 | 155 | 0.0 | 0.0 | 0.00 | 0.00 | 0.00 | 100 | 1015.9 |
| 20260904091526 | 80 | 155 | 0.0 | 0.0 | 0.00 | 0.00 | 0.00 | 100 | 1015.8 |
| 20260904091024 | 80 | 155 | 0.0 | 0.0 | 0.00 | 0.00 | 0.00 | 100 | 1015.8 |
| 20260904090526 | 80 | 155 | 0.0 | 0.0 | 0.00 | 0.00 | 0.00 | 100 | 1015.8 |
| 20260904090030 | 80 | 155 | 0.0 | 0.0 | 0.00 | 0.00 | 0.00 | 100 | 1015.8 |
| 20260904085526 | 80 | 155 | 0.0 | 0.0 | 0.00 | 0.00 | 0.00 | 100 | 1015.8 |
| 20260904085024 | 80 | 155 | 0.0 | 0.0 | 0.00 | 0.00 | 0.00 | 100 | 1015.7 |
| 20260904084525 | 80 | 155 | 0.0 | 0.0 | 0.00 | 0.00 | 0.00 | 100 | 1015.7 |
| 20260904084126 | 80 | 155 | 0.0 | 0.0 | 0.00 | 0.00 | 0.00 | 100 | 1015.8 |
| 20260904083522 | 80 | 155 | 0.0 | 0.0 | 0.00 | 0.00 | 0.00 | 100 | 1015.7 |
| 20260904083021 | 80 | 155 | 0.0 | 0.0 | 0.00 | 0.00 | 0.00 | 100 | 1015.7 |
| 20260904082522 | 80 | 155 | 0.0 | 0.0 | 0.00 | 0.00 | 0.00 | 100 | 1015.7 |
| 20260904082021 | 81 | 155 | 0.0 | 0.0 | 0.00 | 0.00 | 0.00 | 100 | 1015.8 |
| 20260904081521 | 81 | 155 | 0.0 | 1.7 | 0.00 | 0.00 | 0.00 | 100 | 1015.8 |
| 20260904081021 | 81 | 155 | 0.0 | 1.7 | 0.00 | 0.00 | 0.00 | 100 | 1015.7 |
| 20260904080521 | 81 | 155 | 0.0 | 2.6 | 0.00 | 0.00 | 0.00 | 100 | 1015.7 |
| 20260904080021 | 81 | 155 | 0.0 | 2.6 | 0.00 | 0.00 | 0.00 | 100 | 1015.6 |
| 20260904075520 | 81 | 154 | 0.9 | 2.6 | 0.00 | 0.00 | 0.00 | 100 | 1015.5 |
| 20260904075020 | 81 | 153 | 1.7 | 2.6 | 0.00 | 0.00 | 0.00 | 100 | 1015.6 |
| 20260904074530 | 81 | 153 | 0.0 | 1.7 | 0.00 | 0.00 | 0.00 | 100 | 1015.6 |
| 20260904074020 | 81 | 154 | 0.0 | 0.0 | 0.00 | 0.00 | 0.00 | 100 | 1015.4 |
| 20260904073523 | 81 | 154 | 0.0 | 0.0 | 0.00 | 0.00 | 0.00 | 100 | 1015.5 |
| 20260904073020 | 81 | 154 | 0.0 | 0.0 | 0.00 | 0.00 | 0.00 | 100 | 1015.4 |
| 20260904072520 | 81 | 154 | 0.0 | 0.0 | 0.00 | 0.00 | 0.00 | 100 | 1015.5 |
| 20260904072020 | 81 | 154 | 0.0 | 0.0 | 0.00 | 0.00 | 0.00 | 100 | 1015.6 |
| 20260904071518 | 81 | 154 | 0.0 | 0.0 | 0.00 | 0.00 | 0.00 | 100 | 1015.6 |
| 20260904071017 | 81 | 154 | 0.0 | 0.0 | 0.00 | 0.00 | 0.00 | 100 | 1015.6 |
| 20260904070520 | 81 | 154 | 0.0 | 0.0 | 0.00 | 0.00 | 0.00 | 100 | 1015.7 |
| 20260904070017 | 81 | 154 | 0.0 | 0.0 | 0.00 | 0.00 | 0.00 | 100 | 1015.7 |
| 20260904065515 | 81 | 154 | 0.0 | 0.0 | 0.00 | 0.00 | 0.00 | 100 | 1015.8 |
| 20260904065015 | 81 | 154 | 0.0 | 0.0 | 0.00 | 0.00 | 0.00 | 100 | 1015.8 |
| 20260904064515 | 81 | 154 | 0.0 | 0.0 | 0.00 | 0.00 | 0.00 | 100 | 1015.8 |
| 20260904064014 | 81 | 154 | 0.0 | 0.0 | 0.00 | 0.00 | 0.00 | 100 | 1015.8 |
| 20260904063513 | 81 | 154 | 0.0 | 0.0 | 0.00 | 0.00 | 0.00 | 100 | 1015.9 |
| 20260904063014 | 81 | 154 | 0.0 | 0.0 | 0.00 | 0.00 | 0.00 | 100 | 1016.0 |
| 20260904062512 | 81 | 154 | 0.0 | 0.0 | 0.00 | 0.00 | 0.00 | 100 | 1015.9 |
| 20260904062013 | 82 | 154 | 0.0 | 0.0 | 0.00 | 0.00 | 0.00 | 100 | 1015.9 |
| 20260904061520 | 82 | 154 | 0.0 | 0.0 | 0.00 | 0.00 | 0.00 | 100 | 1016.0 |
| 20260904061017 | 82 | 154 | 0.0 | 0.0 | 0.00 | 0.00 | 0.00 | 100 | 1016.0 |
| 20260904060511 | 82 | 154 | 0.0 | 2.6 | 0.00 | 0.00 | 0.00 | 100 | 1016.1 |
| 20260904060018 | 82 | 154 | 0.0 | 4.3 | 0.00 | 0.00 | 0.00 | 100 | 1016.2 |
| 20260904055510 | 82 | 154 | 0.9 | 6.1 | 0.00 | 0.00 | 0.00 | 100 | 1016.1 |
| 20260904055009 | 82 | 148 | 1.7 | 6.1 | 0.00 | 0.00 | 0.00 | 100 | 1016.2 |
| 20260904054514 | 82 | 152 | 1.7 | 5.2 | 0.00 | 0.00 | 0.00 | 100 | 1016.3 |
| 20260904054008 | 82 | 177 | 1.7 | 5.2 | 0.00 | 0.00 | 0.00 | 100 | 1016.3 |
| 20260904053510 | 82 | 149 | 1.7 | 5.2 | 0.00 | 0.00 | 0.00 | 100 | 1016.4 |
| 20260904053008 | 82 | 151 | 1.7 | 5.2 | 0.00 | 0.00 | 0.00 | 100 | 1016.4 |
| 20260904052512 | 82 | 155 | 1.7 | 4.3 | 0.00 | 0.00 | 0.00 | 100 | 1016.4 |
| 20260904052010 | 82 | 147 | 1.7 | 6.1 | 0.00 | 0.00 | 0.00 | 100 | 1016.4 |
| 20260904051514 | 82 | 157 | 1.7 | 7.0 | 0.00 | 0.00 | 0.00 | 100 | 1016.4 |
| 20260904051008 | 82 | 175 | 1.7 | 7.8 | 0.00 | 0.00 | 0.00 | 100 | 1016.4 |
| 20260904050508 | 82 | 172 | 1.7 | 7.8 | 0.00 | 0.00 | 0.00 | 100 | 1016.3 |
| 20260904050006 | 82 | 177 | 4.3 | 7.8 | 0.00 | 0.00 | 0.00 | 100 | 1016.4 |
| 20260904045508 | 82 | 140 | 3.5 | 7.0 | 0.00 | 0.00 | 0.00 | 100 | 1016.4 |
| 20260904045005 | 82 | 169 | 1.7 | 6.1 | 0.00 | 0.00 | 0.00 | 100 | 1016.4 |
| 20260904044505 | 82 | 136 | 2.6 | 7.0 | 0.00 | 0.00 | 0.00 | 100 | 1016.4 |
| 20260904044006 | 83 | 142 | 0.0 | 7.0 | 0.00 | 0.00 | 0.00 | 100 | 1016.4 |
| 20260904043504 | 83 | 187 | 2.6 | 7.0 | 0.00 | 0.00 | 0.00 | 100 | 1016.6 |
| 20260904043004 | 82 | 158 | 3.5 | 7.0 | 0.00 | 0.00 | 0.00 | 100 | 1016.5 |
| 20260904042504 | 82 | 138 | 2.6 | 6.1 | 0.00 | 0.00 | 0.00 | 100 | 1016.5 |
| 20260904042003 | 82 | 174 | 1.7 | 6.1 | 0.00 | 0.00 | 0.00 | 100 | 1016.4 |
| 20260904041503 | 82 | 143 | 2.6 | 7.8 | 0.00 | 0.00 | 0.00 | 100 | 1016.4 |
| 20260904041003 | 82 | 159 | 3.5 | 7.0 | 0.00 | 0.00 | 0.00 | 100 | 1016.5 |
| 20260904040502 | 82 | 159 | 1.7 | 6.1 | 0.00 | 0.00 | 0.00 | 100 | 1016.7 |
| 20260904040004 | 82 | 155 | 2.6 | 6.1 | 0.00 | 0.00 | 0.00 | 100 | 1016.5 |
| 20260904035603 | 82 | 140 | 0.0 | 3.5 | 0.00 | 0.00 | 0.00 | 100 | 1016.5 |
| 20260904035101 | 82 | 140 | 0.9 | 3.5 | 0.00 | 0.00 | 0.00 | 100 | 1016.5 |
| 20260904034559 | 82 | 142 | 0.0 | 3.5 | 0.00 | 0.00 | 0.00 | 100 | 1016.5 |
| 20260904034101 | 82 | 142 | 0.0 | 3.5 | 0.00 | 0.00 | 0.00 | 100 | 1016.6 |
| 20260904033600 | 82 | 142 | 0.0 | 6.1 | 0.00 | 0.00 | 0.00 | 100 | 1016.5 |
| 20260904033100 | 82 | 141 | 1.7 | 6.1 | 0.00 | 0.00 | 0.00 | 100 | 1016.5 |
| 20260904032559 | 82 | 155 | 0.9 | 4.3 | 0.00 | 0.00 | 0.00 | 100 | 1016.5 |
| 20260904032058 | 82 | 155 | 0.9 | 3.5 | 0.00 | 0.00 | 0.00 | 100 | 1016.7 |
| 20260904031600 | 81 | 132 | 0.9 | 3.5 | 0.00 | 0.00 | 0.00 | 100 | 1016.6 |
| 20260904031058 | 81 | 132 | 0.9 | 3.5 | 0.00 | 0.00 | 0.00 | 100 | 1016.6 |
| 20260904030559 | 81 | 129 | 1.7 | 6.1 | 0.00 | 0.00 | 0.00 | 100 | 1016.6 |
| 20260904030058 | 81 | 134 | 1.7 | 6.1 | 0.00 | 0.00 | 0.00 | 100 | 1016.7 |
| 20260904025558 | 81 | 129 | 0.9 | 4.3 | 0.00 | 0.00 | 0.00 | 100 | 1016.7 |
| 20260904025057 | 80 | 158 | 0.0 | 0.0 | 0.00 | 0.00 | 0.00 | 100 | 1016.7 |
| 20260904024558 | 80 | 159 | 0.0 | 0.0 | 0.00 | 0.00 | 0.00 | 100 | 1016.9 |
| 20260904024100 | 80 | 159 | 0.0 | 0.0 | 0.00 | 0.00 | 0.00 | 100 | 1016.8 |
| 20260904023557 | 81 | 159 | 0.0 | 0.9 | 0.00 | 0.00 | 0.00 | 100 | 1016.8 |
| 20260904023058 | 81 | 159 | 0.0 | 2.6 | 0.00 | 0.00 | 0.00 | 100 | 1016.9 |
| 20260904022557 | 81 | 159 | 0.9 | 2.6 | 0.00 | 0.00 | 0.00 | 100 | 1016.9 |
| 20260904022057 | 81 | 157 | 0.0 | 0.0 | 0.00 | 0.00 | 0.00 | 100 | 1016.9 |
| 20260904021557 | 81 | 157 | 0.0 | 0.0 | 0.00 | 0.00 | 0.00 | 100 | 1016.9 |
| 20260904021057 | 81 | 157 | 0.0 | 0.0 | 0.00 | 0.00 | 0.00 | 100 | 1016.9 |
| 20260904020557 | 81 | 156 | 0.0 | 1.7 | 0.00 | 0.00 | 0.00 | 100 | 1016.9 |
| 20260904020058 | 81 | 156 | 0.0 | 4.3 | 0.00 | 0.00 | 0.00 | 100 | 1016.9 |
| 20260904015556 | 81 | 156 | 0.9 | 5.2 | 0.00 | 0.00 | 0.00 | 100 | 1017.0 |
| 20260904015056 | 81 | 158 | 1.7 | 5.2 | 0.00 | 0.00 | 0.00 | 100 | 1017.0 |
| 20260904014606 | 81 | 146 | 1.7 | 6.1 | 0.00 | 0.00 | 0.00 | 100 | 1016.9 |
| 20260904014056 | 81 | 164 | 2.6 | 6.1 | 0.00 | 0.00 | 0.00 | 100 | 1016.9 |
| 20260904013555 | 81 | 159 | 1.7 | 5.2 | 0.00 | 0.00 | 0.00 | 100 | 1016.9 |
| 20260904013055 | 81 | 150 | 1.7 | 6.1 | 0.00 | 0.00 | 0.00 | 100 | 1016.9 |
| 20260904012556 | 81 | 162 | 2.6 | 6.1 | 0.00 | 0.00 | 0.00 | 100 | 1016.9 |
| 20260904012056 | 81 | 155 | 1.7 | 5.2 | 0.00 | 0.00 | 0.00 | 100 | 1016.8 |
| 20260904011555 | 81 | 161 | 0.9 | 4.3 | 0.00 | 0.00 | 0.00 | 100 | 1016.7 |
| 20260904011155 | 81 | 151 | 0.0 | 6.1 | 0.00 | 0.00 | 0.00 | 100 | 1016.6 |
| 20260904010554 | 80 | 159 | 2.6 | 6.1 | 0.00 | 0.00 | 0.00 | 100 | 1016.5 |
| 20260904010112 | 80 | 156 | 1.7 | 5.2 | 0.00 | 0.00 | 0.00 | 100 | 1016.5 |
| 20260904005559 | 81 | 153 | 0.0 | 4.3 | 0.00 | 0.00 | 0.00 | 100 | 1016.3 |
| 20260904005053 | 80 | 153 | 0.9 | 4.3 | 0.00 | 0.00 | 0.00 | 100 | 1016.2 |
| 20260904004554 | 81 | 149 | 0.0 | 2.6 | 0.00 | 0.00 | 0.00 | 100 | 1016.2 |
| 20260904004053 | 80 | 149 | 0.9 | 4.3 | 0.00 | 0.00 | 0.00 | 100 | 1016.2 |
| 20260904003553 | 81 | 148 | 0.0 | 6.1 | 0.00 | 0.00 | 0.00 | 100 | 1016.2 |
| 20260904003053 | 81 | 148 | 0.9 | 6.1 | 0.00 | 0.00 | 0.00 | 100 | 1016.2 |
| 20260904002655 | 81 | 150 | 1.7 | 5.2 | 0.00 | 0.00 | 0.00 | 100 | 1016.2 |
| 20260904002053 | 81 | 134 | 0.9 | 5.2 | 0.00 | 0.00 | 0.00 | 100 | 1016.0 |
| 20260904001552 | 81 | 150 | 0.9 | 7.0 | 0.00 | 0.00 | 0.00 | 100 | 1016.1 |
| 20260904001052 | 81 | 148 | 2.6 | 7.0 | 0.00 | 0.00 | 0.00 | 100 | 1016.2 |
| 20260904000552 | 81 | 154 | 0.9 | 8.7 | 0.00 | 0.00 | 0.00 | 100 | 1016.2 |
| 20260904000057 | 81 | 143 | 3.5 | 8.7 | 0.00 | 0.00 | 0.00 | 100 | 1016.3 |
| 20260903235552 | 82 | 155 | 3.5 | 8.7 | 0.00 | 0.00 | 0.00 | 100 | 1016.3 |
| 20260903235051 | 82 | 148 | 2.6 | 7.8 | 0.00 | 0.00 | 0.00 | 100 | 1016.2 |
| 20260903234551 | 82 | 140 | 2.6 | 8.7 | 0.00 | 0.00 | 0.00 | 100 | 1016.1 |
| 20260903234051 | 82 | 142 | 0.9 | 9.6 | 0.00 | 0.00 | 0.00 | 100 | 1015.9 |
| 20260903233551 | 82 | 127 | 2.6 | 9.6 | 0.00 | 0.00 | 0.00 | 100 | 1015.8 |
| 20260903233055 | 82 | 200 | 1.7 | 9.6 | 0.00 | 0.00 | 0.00 | 100 | 1015.8 |
| 20260903232551 | 82 | 118 | 3.5 | 9.6 | 0.00 | 0.00 | 0.00 | 100 | 1015.8 |
| 20260903232051 | 82 | 136 | 3.5 | 8.7 | 0.00 | 0.00 | 0.00 | 100 | 1015.7 |
| 20260903231551 | 82 | 136 | 3.5 | 8.7 | 0.00 | 0.00 | 0.00 | 100 | 1015.8 |
| 20260903231051 | 83 | 138 | 3.5 | 7.8 | 0.00 | 0.00 | 0.00 | 100 | 1015.9 |
| 20260903230550 | 83 | 148 | 2.6 | 6.1 | 0.00 | 0.00 | 0.00 | 100 | 1016.1 |
| 20260903230050 | 83 | 142 | 1.7 | 11.3 | 0.00 | 0.00 | 0.00 | 100 | 1015.9 |
| 20260903225549 | 83 | 152 | 6.1 | 13.9 | 0.00 | 0.00 | 0.00 | 100 | 1016.0 |
| 20260903225049 | 83 | 115 | 3.5 | 12.2 | 0.00 | 0.00 | 0.00 | 100 | 1016.0 |
| 20260903224549 | 83 | 155 | 2.6 | 7.8 | 0.00 | 0.00 | 0.00 | 100 | 1015.9 |
| 20260903224052 | 84 | 157 | 1.7 | 7.8 | 0.00 | 0.00 | 0.00 | 100 | 1015.8 |
| 20260903223549 | 83 | 128 | 3.5 | 7.8 | 0.00 | 0.00 | 0.00 | 100 | 1015.7 |
| 20260903223051 | 84 | 101 | 1.7 | 9.6 | 0.00 | 0.00 | 0.00 | 100 | 1015.6 |
| 20260903222549 | 83 | 163 | 4.3 | 9.6 | 0.00 | 0.00 | 0.00 | 100 | 1015.6 |
| 20260903222049 | 84 | 145 | 1.7 | 7.0 | 0.00 | 0.00 | 0.00 | 100 | 1015.7 |
| 20260903221549 | 84 | 109 | 2.6 | 11.3 | 0.00 | 0.00 | 0.00 | 100 | 1015.5 |
| 20260903221048 | 84 | 154 | 4.3 | 9.6 | 0.00 | 0.00 | 0.00 | 100 | 1015.5 |
| 20260903220548 | 84 | 167 | 3.5 | 9.6 | 0.00 | 0.00 | 0.00 | 100 | 1015.4 |
| 20260903220052 | 84 | 120 | 2.6 | 9.6 | 0.00 | 0.00 | 0.00 | 100 | 1015.6 |
| 20260903215547 | 84 | 143 | 6.1 | 9.6 | 0.00 | 0.00 | 0.00 | 100 | 1015.6 |
| 20260903215046 | 84 | 109 | 2.6 | 7.8 | 0.00 | 0.00 | 0.00 | 100 | 1015.7 |
| 20260903214548 | 84 | 184 | 2.6 | 8.7 | 0.00 | 0.00 | 0.00 | 100 | 1015.6 |